Regional Weather Roundup
Issued by NWS

Home | Current Version | Previous Version | Graphics & Text | Print | Product List | Glossary On
Versions: 1 2 3 4 5 6 7 8 9 10 11 12 13 14 15 16 17 18 19 20 21 22 23 24 25 26 27 28 29 30 31 32 33 34 35 36 37 38 39 40 41 42 43 44 45 46 47 48 49 50
000
ASUS45 KABQ 280601
RWRNM
NEW MEXICO REGIONAL WEATHER ROUNDUP
NATIONAL WEATHER SERVICE ALBUQUERQUE NM
1200 AM MDT THU APR 28 2016

NOTE: "FAIR" MEANS FEW OR NO CLOUDS BELOW 12,000 FEET AGL WITH NO
       SIGNIFICANT WEATHER OR OBSTRUCTIONS TO VISION.

      THIS PRODUCT IS RELEASED AS TWO VERSIONS.  ONE VERSION NEAR
      THE TOP OF THE HOUR CONTAINING PRELIMINARY DATA FROM ALBUQUERQUE
      AND OTHER STATIONS.  A FINAL VERSION WITH ADDITIONAL DATA IS
      ISSUED ABOUT 10 MINUTES AFTER THE HOUR.

NMZ501-503-504-510>518-280700-
NORTHWEST PLATEAU/NORTHCENTRAL MOUNTAINS

CITY           SKY/WX    TMP DP  RH WIND       PRES   REMARKS
FARMINGTON     CLOUDY    55  29  36 CALM      29.76S
6HR MIN TEMP:  54; 6HR MAX TEMP:  61;

SANTA FE       MOCLDY    44  25  47 N6        29.81F
6HR MIN TEMP:  44; 6HR MAX TEMP:  63;

TAOS           MOCLDY    43  23  45 E8        29.87F
ANGEL FIRE     MOCLDY    30  23  75 CALM      29.93F

$$
NMZ402-403-502-505>509-280700-
WESTCENTRAL MOUNTAINS/SOUTHWEST MOUNTAINS

CITY           SKY/WX    TMP DP  RH WIND       PRES   REMARKS
GALLUP         CLOUDY    52  15  23 SW16G25   29.82S
6HR MIN TEMP:  52; 6HR MAX TEMP:  60;

GRANTS         MOCLDY    41  20  42 CALM      29.85S
SILVER CITY      N/A     46  16  29 NW6       29.85F

$$
NMZ407-409-411-412-280700-
SOUTHERN DESERTS

CITY           SKY/WX    TMP DP  RH WIND       PRES   REMARKS
LORDSBURG      FAIR      55  18  22 SW5       29.80S
DEMING         FAIR      58  16  19 W10       29.79S
6HR MIN TEMP:  58; 6HR MAX TEMP:  77;

HOLLOMAN AFB   FAIR      58  15  18 S8        29.76S
ALAMOGORDO     FAIR      57  18  21 SE12      29.77S
T OR C         FAIR      57  19  22 CALM      29.77F
6HR MIN TEMP:  56; 6HR MAX TEMP:  73;


$$
NMZ519>523-280700-
CENTRAL VALLEYS/CENTRAL HIGHLANDS

CITY           SKY/WX    TMP DP  RH WIND       PRES   REMARKS
ALBUQUERQUE    CLOUDY    63  28  26 N7        29.78R
6HR MIN TEMP:  62; 6HR MAX TEMP:  68;

DOUBLE EAGLE   CLOUDY    59  29  31 W12G17    29.80S
CLINES CORNERS FAIR      46  16  30 S9        29.84F
6HR MIN TEMP:  44; 6HR MAX TEMP:  62;

BELEN          CLOUDY    62  16  16 W12       29.78R
6HR MIN TEMP:  62; 6HR MAX TEMP:  70;

SOCORRO        NOT AVBL

$$
NMZ524>526-539-540-280700-
SOUTHCENTRAL MOUNTAINS

CITY           SKY/WX    TMP DP  RH WIND       PRES   REMARKS
RUIDOSO        NOT AVBL

$$
NMZ527>531-280700-
NORTHEAST HIGHLANDS/NORTHEAST PLAINS

CITY           SKY/WX    TMP DP  RH WIND       PRES   REMARKS
LAS VEGAS      CLOUDY    45  26  47 NE7       29.86S
6HR MIN TEMP:  42; 6HR MAX TEMP:  63;

RATON          FAIR      45  31  58 N8        29.85S
6HR MIN TEMP:  45; 6HR MAX TEMP:  61;

CLAYTON        FAIR      45  29  53 E5        29.87S
6HR MIN TEMP:  44; 6HR MAX TEMP:  60;


$$
NMZ532>537-280700-
EASTCENTRAL PLAINS

CITY           SKY/WX    TMP DP  RH WIND       PRES   REMARKS
TUCUMCARI      FAIR      58  35  42 E10       29.75R
6HR MIN TEMP:  56; 6HR MAX TEMP:  73;

CANNON AFB     CLOUDY    56  27  31 E13       29.77S
6HR MIN TEMP:  53; 6HR MAX TEMP:  72;

CLOVIS AIRPORT FAIR      55  36  47 SE17      29.79S

$$
NMZ028-029-538-280700-
SOUTHEAST PLAINS

CITY           SKY/WX    TMP DP  RH WIND       PRES   REMARKS
ROSWELL        FAIR      61  18  18 W7        29.73R
6HR MIN TEMP:  58; 6HR MAX TEMP:  79;

ARTESIA        FAIR      57  18  21 SW12      29.75R
CARLSBAD       FAIR      59  15  18 W9        29.73S
6HR MIN TEMP:  59; 6HR MAX TEMP:  81;

HOBBS          FAIR      54  18  24 S7        29.79R


$$




USA.gov is the U.S. government's official web portal to all federal, state and local government web resources and services.